Probability
0 0 0 0 0 0 0 0 0 0 0 0 0 0 0 0 0 0 0 0 0 0 0 0 0 0 0 0 0 0 0 0 0 0 0 0 0 0 0 0 0 0 0 0 0 0 0 0 0
0 0 0 0 0 0 0 0 0 0 0 0 0 0 0 0 0 0 0 0 0 0 0 0 0 0 0 0 0 0 0 0 0 0 0 0 0 0 0 0 0 0 0 0 0 0 0 0 0
0 0 0 0 0 0 0 0 0 0 0 0 0 0 0 0 0 0 0 0 0 0 0 0 0 0 0 0 0 0 0 0 0 0 0 0 0 0 0 0 0 0 0 0 0 0 0 0 0
0 0 0 0 0 0 0 0 0 0 0 0 0 0 0 0 0 0 0 0 0 0 0 0 0 0 0 0 0 0 0 0 0 0 0 0 0 0 0 0 0 0 0 0 0 0 0 0 0
0 0 0 0 0 0 0 0 0 0 0 0 0 0 0 0 0 0 0 0 0 0 0 0 0 0 0 0 0 0 0 0 0 0 0 0 0 0 0 0 0 0 0 0 0 0 0 0 0
0 0 0 0 0 0 0 0 0 0 0 0 0 0 0 0 0 0 0 0 0 0 0 0 0 0 0 0 0 0 0 0 0 0 0 0 0 0 0 0 0 0 0 0 0 0 0 0 0
0 0 0 0 0 0 0 0 0 0 0 0 0 0 0 0 0 0 0 0 0 0 0 0 0 0 0 0 0 0 0 0 0 0 0 0 0 0 0 0 0 0 0 0 0 0 0 0 0
0 0 0 0 0 0 0 0 0 0 0 0 0 0 0 0 0 0 0 0 0 0 0 0 0 0 0 0 0 0 0 0 0 0 0 0 0 0 0 0 0 0 0 0 0 0 0 0 0
0 0 0 0 0 0 0 0 0 0 0 0 0 0 0 0 0 0 0 0 0 0 0 0 0 0 0 0 0 0 0 0 0 0 0 0 0 0 0 0 0 0 0 0 0 0 0 0 0
0 0 0 0 0 0 0 0 0 0 0 0 0 0 0 0 0 0 0 0 0 0 0 0 0 0 0 0 0 0 0 0 0 0 0 0 0 0 0 0 0 0 0 0 0 0 0 0 0
0 0 0 0 0 0 0 0 0 0 0 0 0 0 0 0 0 0 0 0 0 0 0 0 0 0 0 0 0 0 0 0 0 0 0 0 0 0 0 0 0 0 0 0 0 0 0 0 0
0 0 0 0 0 0 0 0 0 0 0 0 0 0 0 0 0 0 0 0 0 0 0 0 0 0 0 0 0 0 0 0 0 0 0 0 0 0 0 0 0 0 0 0 0 0 0 0 0
0 0 0 0 0 0 0 0 0 0 0 0 0 0 0 0 0 0 0 0 0 0 0 0 0 0 0 0 0 0 0 0 0 0 0 0 0 0 0 0 0 0 0 0 0 0 0 0 0
0 0 0 0 0 0 0 0 0 0 0 0 0 0 0 0 0 0 0 0 0 0 0 0 0 0 0 0 0 0 0 0 0 0 0 0 0 0 0 0 0 0 0 0 0 0 0 0 0
0 0 0 0 0 0 0 0 0 0 0 0 0 0 0 0 0 0 0 0 0 0 0 0 0 0 0 0 0 0 0 0 0 0 0 0 0 0 0 0 0 0 0 0 0 0 0 0 0
0 0 0 0 0 0 0 0 0 0 0 0 0 0 0 0 0 0 0 0 0 0 0 0 0 0 0 0 0 0 0 0 0 0 0 0 0 0 0 0 0 0 0 0 0 0 0 0 0
0 0 0 0 0 0 0 0 0 0 0 0 0 0 0 0 0 0 0 0 0 0 0 0 0 0 3 5 5 3 1 0 0 0 0 0 0 0 0 0 0 0 0 0 0 0 0 0 0
0 0 0 0 0 0 0 0 0 0 0 0 0 0 0 0 0 0 0 0 0 0 0 0 1 6 20 33 33 25 15 6 2 0 0 0 0 0 0 0 0 0 0 0 0 0 0 0 0
0 0 0 0 0 0 0 0 0 0 0 0 0 0 0 0 1 2 4 7 9 7 3 1 4 21 51 73 75 66 49 28 11 2 0 0 0 0 0 0 0 0 0 0 0 0 0 0 0
0 0 0 0 0 0 0 0 0 0 0 0 0 0 0 0 2 5 13 25 34 32 20 8 12 41 76 95 98 94 83 60 30 9 2 0 0 0 0 0 0 0 0 0 0 0 0 0 0
0 0 0 0 0 0 0 0 0 0 0 0 0 0 0 0 1 6 18 40 60 65 51 28 27 57 88 99 100 99 96 81 54 27 11 3 0 0 0 0 0 0 0 0 0 0 0 0 0
0 0 0 0 0 0 0 0 0 0 0 0 0 0 0 0 0 3 13 35 61 78 77 60 54 73 94 99 96 93 90 84 69 49 28 10 2 0 0 0 0 0 0 0 0 0 0 0 0
0 0 0 0 0 0 0 0 0 0 0 0 0 0 0 0 0 0 5 18 41 66 82 84 82 89 95 93 86 79 73 71 67 58 41 22 7 2 1 1 0 0 0 0 0 0 0 0 0
0 0 0 0 0 0 0 0 0 0 0 0 0 0 0 0 0 0 1 6 18 40 65 82 88 90 87 81 72 61 51 47 50 49 41 28 12 3 2 1 0 0 0 0 0 0 0 0 0
0 0 0 0 0 0 0 0 0 0 0 0 0 0 0 0 0 0 0 1 5 16 34 54 65 66 63 59 54 43 31 28 31 33 30 22 11 3 1 0 0 0 0 0 0 0 0 0 0
0 0 0 0 0 0 0 0 0 0 0 0 0 0 0 0 0 0 0 0 1 3 10 22 32 34 32 32 31 25 19 18 19 19 16 10 4 1 0 0 0 0 0 0 0 0 0 0 0
0 0 0 0 0 0 0 0 0 0 0 0 0 0 0 0 0 0 0 0 0 0 1 4 8 11 12 13 14 12 11 11 11 9 6 3 1 0 0 0 0 0 0 0 0 0 0 0 0
0 0 0 0 0 0 0 0 0 0 0 0 0 0 0 0 0 0 0 0 0 0 0 0 1 2 4 5 5 5 5 5 4 3 1 1 0 0 0 0 0 0 0 0 0 0 0 0 0
0 0 0 0 0 0 0 0 0 0 0 0 0 0 0 0 0 0 0 0 0 0 0 0 0 0 1 1 1 1 1 1 1 0 0 0 0 0 0 0 0 0 0 0 0 0 0 0 0
0 0 0 0 0 0 0 0 0 0 0 0 0 0 0 0 0 0 0 0 0 0 0 0 0 0 0 0 0 0 0 0 0 0 0 0 0 0 0 0 0 0 0 0 0 0 0 0 0
Wind_Speed
3 1 3 3 3 6 10 7 5 4 5 5 4 2 4 4 4 5 6 12 14 15 14 16 15 15 15 13 13 12 12 12 11 11 10 10 9 8 8 9 9 9 8 9 9 8 8 8 7
3 1 4 4 2 9 9 5 5 4 6 5 4 2 2 5 5 7 9 12 14 14 13 14 16 15 15 14 13 12 12 12 12 11 10 10 9 8 8 9 9 9 9 9 9 9 8 8 8
1 3 3 1 4 7 8 5 4 4 5 1 2 2 3 5 5 7 10 14 14 13 12 13 14 14 14 14 13 13 12 12 12 11 10 10 9 8 8 9 9 10 10 10 10 9 9 9 8
3 3 3 2 7 5 3 3 1 4 3 1 1 4 4 5 5 8 13 14 14 13 12 14 14 13 13 13 12 13 12 12 12 11 10 9 9 8 7 8 9 10 10 11 10 10 10 10 9
4 4 2 5 5 4 1 1 1 4 2 1 2 2 6 5 7 11 13 13 14 13 12 14 14 13 13 13 12 13 13 13 12 11 10 9 8 8 7 8 9 10 10 10 10 10 10 10 9
4 3 3 5 5 3 2 1 3 4 2 2 2 1 6 7 8 10 12 12 13 13 12 13 14 12 12 12 12 13 13 13 13 12 11 10 8 8 7 8 9 9 9 9 9 9 9 9 8
4 2 2 5 5 4 3 1 2 2 2 2 1 1 6 8 9 11 11 11 11 12 12 11 14 13 13 11 12 13 14 14 13 13 12 10 9 8 8 8 8 8 8 8 8 8 7 7 7
4 2 4 4 5 4 3 0 0 2 1 2 2 1 4 11 11 11 10 10 10 11 11 11 11 11 12 12 13 13 14 14 13 13 12 11 10 9 8 8 7 6 7 6 6 7 7 7 8
4 5 4 3 2 4 3 1 2 0 2 4 1 3 4 14 14 12 10 10 9 9 9 10 10 10 10 10 12 12 13 13 13 12 12 12 10 10 9 7 7 7 7 6 6 6 6 6 9
3 3 3 3 2 2 2 3 2 3 3 3 3 4 8 15 15 14 13 12 12 12 11 9 9 9 9 8 9 8 9 11 11 10 12 9 7 5 4 12 6 7 7 6 5 5 6 7 6
2 2 3 2 3 3 3 3 3 3 1 3 4 3 11 14 15 14 13 12 11 11 10 9 9 9 9 7 7 6 5 7 8 9 10 7 6 5 5 6 8 8 8 7 7 8 4 4 3
2 2 2 2 3 3 4 4 3 3 7 9 9 5 11 15 15 14 13 11 10 10 10 10 10 9 9 8 6 6 6 6 6 9 10 7 5 5 5 4 5 5 4 3 3 2 4 4 6
2 1 2 2 2 3 4 3 4 7 10 10 7 4 11 13 13 12 11 10 10 10 10 11 11 10 9 8 6 7 7 6 7 6 8 8 6 6 5 5 4 5 5 5 3 3 4 3 3
3 2 2 2 2 2 4 3 3 10 12 10 8 3 6 10 11 10 11 10 10 10 11 11 11 11 10 9 8 7 7 7 6 7 8 9 7 6 5 6 6 5 5 4 4 3 4 3 2
2 5 4 1 2 3 5 2 10 13 12 10 9 6 4 6 8 11 11 11 11 11 11 11 11 12 12 11 9 7 7 7 7 7 9 9 8 7 6 5 6 6 6 7 4 4 3 3 3
5 7 6 2 2 3 6 2 12 13 11 11 10 8 6 5 7 10 11 12 12 11 12 12 10 12 12 10 9 7 8 8 7 7 7 10 10 9 6 5 5 6 6 5 4 4 4 4 4
7 8 6 2 2 2 3 3 10 12 11 10 10 10 9 7 6 7 10 11 12 12 12 13 14 14 13 12 9 8 7 7 6 7 7 8 9 9 7 5 5 7 6 6 5 5 5 4 3
5 5 4 2 2 3 1 4 7 9 10 10 10 10 10 10 10 9 8 8 9 11 13 14 14 15 14 11 9 7 7 7 6 6 7 9 8 9 6 5 7 7 6 6 6 6 5 4 4
5 6 6 2 1 3 1 2 5 7 9 10 10 11 12 12 12 10 9 7 8 11 14 16 16 15 13 11 10 8 7 6 6 6 8 9 9 10 8 7 8 7 8 9 9 7 8 7 6
6 8 7 3 1 5 4 3 4 5 8 9 11 12 12 14 14 13 11 9 8 8 12 16 18 16 16 12 11 9 8 6 6 6 7 9 10 10 9 11 8 9 8 10 10 8 6 6 6
5 6 8 8 4 6 8 8 6 3 5 8 10 11 12 13 15 15 14 13 11 10 10 11 14 14 14 12 9 8 7 5 5 5 5 8 9 9 9 10 9 9 9 8 9 10 10 7 7
7 6 8 9 10 8 6 9 7 1 2 8 11 12 13 14 14 14 15 15 14 13 11 9 9 11 11 10 9 11 7 6 5 4 4 6 8 8 8 8 8 8 7 8 9 10 8 8 7
10 10 11 11 13 13 11 11 5 2 3 9 12 13 13 14 14 14 14 15 14 12 10 5 4 8 9 8 8 7 5 3 3 2 1 2 3 5 6 7 7 7 6 8 8 7 8 7 7
12 13 13 11 11 16 15 13 4 4 7 11 12 14 14 14 14 14 14 14 12 11 8 2 5 8 9 8 9 10 10 7 5 4 3 1 1 3 6 6 6 6 6 6 7 7 8 7 8
12 11 7 8 10 10 4 6 6 7 8 10 13 14 14 13 13 12 13 13 12 11 8 3 7 8 9 9 10 11 11 9 7 5 3 3 3 4 6 6 6 5 5 5 5 6 6 7 7
10 9 7 8 8 6 3 1 7 6 8 10 12 13 13 13 12 11 11 11 10 9 7 7 8 9 9 9 10 10 10 7 5 4 2 4 5 5 5 6 5 5 5 5 5 4 5 5 6
10 8 6 8 10 9 5 5 5 7 11 13 14 15 15 13 11 10 10 10 10 8 7 8 9 11 10 9 9 9 9 7 5 2 2 5 5 3 5 5 6 5 5 6 5 4 5 5 5
8 8 6 5 6 6 2 3 7 16 18 17 17 16 16 14 11 9 9 9 9 8 8 8 9 9 9 9 8 7 7 5 2 2 6 8 6 5 6 7 7 7 7 7 6 5 4 6 5
9 6 6 6 5 5 4 4 8 13 15 15 15 14 14 12 9 7 6 6 7 7 8 8 7 7 7 7 6 5 3 1 4 6 7 7 5 6 6 6 7 7 8 8 6 6 5 6 6
6 7 5 4 5 5 4 3 8 12 13 12 13 13 12 11 10 8 6 5 5 5 5 5 5 5 4 4 2 1 2 4 6 6 4 4 3 3 4 5 5 6 6 6 6 6 5 5 5
Wind_Direction
247 204 222 241 214 93 83 81 78 78 80 74 70 54 38 26 352 34 99 151 142 147 148 153 156 156 155 153 150 147 144 142 139 135 132 126 121 116 109 101 93 88 86 83 79 78 80 84 99
308 248 252 254 111 95 86 78 80 64 94 99 90 75 72 70 51 93 132 149 149 148 153 153 154 159 161 162 160 157 152 150 146 140 136 131 126 118 109 101 95 90 86 84 80 79 83 85 92
238 253 283 246 78 77 86 65 54 105 129 147 111 58 35 62 98 119 134 152 152 152 154 145 156 160 163 166 167 163 159 155 150 145 143 140 134 125 115 108 101 95 89 86 81 76 78 87 97
244 237 238 130 101 80 68 71 51 147 175 192 179 119 84 65 106 119 141 156 156 158 157 152 164 165 165 167 168 164 161 158 156 152 151 148 142 136 131 122 111 102 94 88 83 74 69 76 89
258 256 169 123 112 99 84 341 220 189 196 228 252 106 103 98 108 127 148 158 161 162 162 158 168 167 166 169 170 167 163 162 160 157 155 151 146 144 145 136 122 111 101 92 85 77 69 63 71
255 248 179 144 123 118 124 187 223 214 205 226 253 130 103 126 141 146 150 159 162 163 167 160 166 172 172 175 175 173 166 165 163 160 157 153 149 145 139 134 125 116 107 98 89 80 74 66 64
279 250 167 149 144 135 74 352 241 231 219 215 244 125 122 148 150 154 155 161 163 166 173 171 172 176 179 181 181 178 169 167 166 163 159 156 151 147 138 132 128 122 115 106 97 86 79 73 69
299 236 158 160 166 117 61 113 288 263 107 107 206 274 136 156 156 159 158 167 170 174 180 181 180 179 178 180 183 180 173 169 168 166 163 158 155 154 149 157 138 137 130 115 103 96 91 86 84
276 244 183 149 152 101 43 66 102 216 161 172 202 13 87 145 159 164 166 175 180 188 189 188 185 181 182 181 172 178 176 172 171 171 168 174 179 168 172 137 139 147 136 122 112 103 106 119 113
277 266 79 57 12 36 19 11 15 203 207 199 162 113 138 155 170 178 181 183 186 191 194 193 194 183 184 181 166 183 182 178 187 178 177 195 181 169 152 119 156 146 137 140 125 125 169 212 150
306 3 64 74 359 330 326 353 346 281 273 355 338 169 166 175 183 190 192 190 191 193 191 200 197 190 185 182 176 185 182 182 192 180 180 198 174 170 175 160 166 165 173 174 152 194 181 174 118
309 42 12 29 2 328 327 330 337 354 9 346 318 271 191 192 195 198 198 193 190 197 193 196 200 195 194 188 185 186 186 185 184 188 186 188 188 190 171 190 162 162 181 177 200 217 175 181 161
298 17 52 24 359 337 312 327 340 37 1 344 329 244 209 207 205 205 205 198 197 196 199 198 200 201 196 193 192 189 195 195 191 192 191 189 190 194 172 184 177 187 175 177 197 215 171 197 161
354 323 310 321 326 355 327 332 16 26 360 8 10 344 232 225 224 216 212 211 209 205 206 198 202 203 199 194 199 194 194 191 196 197 202 194 192 197 186 187 188 188 186 183 193 173 157 184 156
272 272 258 282 338 11 302 102 38 7 357 9 8 14 331 274 250 243 233 226 222 213 213 204 205 205 205 203 202 192 196 194 196 199 204 198 196 199 194 191 189 190 188 190 201 164 171 154 157
244 251 249 113 6 2 290 129 32 9 8 11 0 0 348 317 281 267 258 247 239 227 220 208 203 209 206 203 202 198 199 195 200 196 208 202 197 204 197 196 194 194 192 196 191 204 195 178 191
230 252 262 148 72 335 312 54 33 20 19 16 5 355 345 331 312 293 281 269 259 248 235 218 207 207 205 201 200 201 200 196 201 200 204 207 204 206 200 203 200 194 202 205 201 209 209 202 200
279 262 247 247 87 293 274 85 54 31 27 20 11 359 351 341 333 322 308 291 275 265 249 237 215 210 202 197 199 193 196 196 201 205 206 207 206 212 210 205 212 204 208 216 219 213 220 231 217
299 275 269 295 26 286 283 89 71 42 31 22 14 6 357 347 340 336 321 300 264 249 247 241 226 209 201 191 193 185 188 190 201 210 211 208 210 213 215 222 220 213 217 221 225 219 219 224 222
285 278 279 265 190 273 261 203 113 57 37 24 10 6 1 352 348 346 339 328 311 278 254 241 227 210 202 196 187 182 175 182 190 205 208 211 215 218 221 221 221 219 225 230 232 222 226 225 218
290 302 301 291 259 233 260 223 180 114 45 30 18 7 4 358 350 347 346 342 331 316 287 253 232 205 195 190 176 164 154 149 165 193 205 213 216 217 223 226 225 227 224 229 229 222 222 220 222
307 353 307 281 262 251 237 270 183 141 30 21 12 5 1 356 350 348 345 341 338 332 318 280 230 194 177 175 176 165 164 159 161 172 193 210 215 215 217 225 228 230 223 225 226 222 222 219 221
339 324 299 283 269 265 236 254 203 128 3 6 1 356 354 351 347 345 343 338 338 337 331 315 187 156 154 160 164 139 113 103 94 106 155 200 221 216 208 212 215 227 226 230 229 223 222 222 225
332 303 278 257 259 254 249 243 195 58 1 348 348 347 347 346 343 342 342 339 341 345 346 9 130 131 135 138 132 120 107 95 78 50 11 345 241 223 205 204 210 219 225 229 230 227 228 238 238
349 331 286 251 231 250 258 242 86 43 6 347 340 339 342 342 342 342 343 343 343 350 0 36 111 114 119 121 115 110 105 99 84 63 1 318 264 232 210 201 207 215 223 224 225 226 228 231 240
350 346 330 302 299 312 292 215 96 28 4 350 344 341 344 344 344 345 348 349 350 357 21 46 81 91 94 100 100 98 98 93 82 65 5 290 265 243 210 193 194 196 204 208 212 229 225 230 229
347 351 332 292 286 277 257 129 137 0 0 356 352 349 349 346 348 354 359 3 7 15 35 55 72 76 75 80 85 84 83 81 73 41 296 266 254 227 194 182 185 185 192 200 201 223 224 232 234
8 333 312 295 305 296 280 60 11 353 349 347 348 345 344 347 354 6 13 14 19 25 39 52 60 69 72 72 70 75 73 65 26 289 261 250 229 208 190 191 190 184 190 193 198 214 216 227 226
1 352 327 298 291 300 313 61 17 346 338 334 336 340 343 349 357 10 20 19 17 24 31 33 40 54 66 74 77 82 100 190 249 252 249 241 218 204 198 200 200 188 189 192 192 213 206 227 229
13 358 329 321 334 323 313 26 7 344 338 341 342 346 354 4 11 14 13 13 3 4 9 18 21 33 52 74 93 175 227 242 243 238 233 223 210 216 209 195 208 201 201 204 203 213 216 228 240